Mountain Home, ID

7:16 PM MDT on October 16, 2017 (GMT -0600)
Mountain Home Air Force Base

Weather History for KMUO - April, 2014

Change the Weather History Date:

Saturday, April 12, 2014

  Actual Average Record
Temperature  
Mean Temperature 52 °F 49 °F  
Max Temperature 64 °F 61 °F 85 °F (1908)
Min Temperature 39 °F 35 °F 20 °F (1929)
Degree Days  
Heating Degree Days 13 17  
Month to date heating degree days 179 215  
Cooling Degree Days 0 0  
Month to date cooling degree days 0 0  
Growing Degree Days 2 (Base 50)    
Moisture  
Dew Point 26 °F    
Average Humidity 42    
Maximum Humidity 79    
Minimum Humidity 14    
Precipitation  
Precipitation 0.00 in 0.04 in 0.47 in (1944)
Month to date precipitation 0.10 0.44  
Sea Level Pressure  
Sea Level Pressure 29.80 in    
Wind  
Wind Speed 14 mph (NW)    
Max Wind Speed 29 mph    
Max Gust Speed 36 mph    
Visibility 10 miles    
Events      
T = Trace of Precipitation, MM = Missing Value Source: NWS Daily Summary

Daily Weather History Graph

Daily Weather History Graph

Search for Another Location

Airport or City:

Trip Planner

Search our weather history database for the weather conditions in past years. The results will help you decide how hot, cold, wet, or windy it might be!

Date:

Astronomy

Apr. 12, 2014 Rise Set
Actual Time 7:06 AM MDT 8:22 PM MDT
Civil Twilight 6:37 AM MDT 8:52 PM MDT
Nautical Twilight 6:01 AM MDT 9:27 PM MDT
Astronomical Twilight 5:24 AM MDT 10:04 PM MDT
Moon 6:02 PM MDT (4/12) 5:39 AM MDT (4/12)
Length of Visible Light 14h 14m
Length of Day
13h 16m
Waxing Gibbous, 93% of the Moon is Illuminated
Apr 12
Waxing Gibbous
Apr 15
Full
Apr 22
Last Quarter
Apr 29
New
May 6
First Quarter

Hourly Weather History & Observations

Time (MDT) Temp. Windchill Dew Point Humidity Pressure Visibility Wind Dir Wind Speed Gust Speed Precip Events Conditions
12:58 AM 46.6 °F - 31.6 °F 56% 29.81 in 10.0 mi WNW 4.6 mph - N/A   Clear
1:58 AM 43.5 °F 38.9 °F 31.8 °F 63% 29.81 in 10.0 mi NW 8.1 mph - N/A   Clear
2:58 AM 45.0 °F 41.8 °F 31.3 °F 59% 29.81 in 10.0 mi NW 5.8 mph - N/A   Clear
3:58 AM 43.7 °F 38.1 °F 30.7 °F 60% 29.80 in 10.0 mi NW 10.4 mph - N/A   Clear
4:58 AM 39.4 °F 34.5 °F 29.7 °F 68% 29.80 in 10.0 mi West 6.9 mph - N/A   Clear
5:58 AM 41.2 °F 35.0 °F 32.0 °F 70% 29.80 in 10.0 mi WNW 10.4 mph - N/A   Clear
6:58 AM 39.6 °F 33.5 °F 32.5 °F 76% 29.81 in 10.0 mi NW 9.2 mph - N/A   Clear
7:58 AM 40.1 °F 34.1 °F 34.2 °F 79% 29.82 in 10.0 mi WNW 9.2 mph - N/A   Clear
8:58 AM 51.4 °F - 35.1 °F 54% 29.83 in 10.0 mi NW 23.0 mph - N/A   Partly Cloudy
9:58 AM 52.2 °F - 32.0 °F 46% 29.84 in 10.0 mi NW 25.3 mph - N/A   Partly Cloudy
10:58 AM 57.2 °F - 31.8 °F 38% 29.84 in 10.0 mi NW 19.6 mph - N/A   Clear
11:58 AM 60.4 °F - 30.4 °F 32% 29.82 in 10.0 mi NW 21.9 mph 29.9 mph N/A   Clear
12:58 PM 61.3 °F - 27.3 °F 27% 29.81 in 10.0 mi NW 23.0 mph 32.2 mph N/A   Clear
1:58 PM 63.3 °F - 20.7 °F 19% 29.78 in 10.0 mi NW 24.2 mph 32.2 mph N/A   Clear
2:58 PM 63.9 °F - 24.8 °F 23% 29.76 in 10.0 mi NW 28.8 mph 33.4 mph N/A   Clear
3:58 PM 64.4 °F - 24.4 °F 22% 29.75 in 10.0 mi NW 26.5 mph 34.5 mph N/A   Clear
4:58 PM 63.9 °F - 20.7 °F 19% 29.76 in 10.0 mi NW 25.3 mph 32.2 mph N/A   Clear
5:58 PM 63.3 °F - 16.3 °F 16% 29.76 in 10.0 mi NW 25.3 mph - N/A   Clear
6:58 PM 61.5 °F - 10.8 °F 14% 29.75 in 10.0 mi NW 28.8 mph 35.7 mph N/A   Clear
7:58 PM 59.0 °F - 14.2 °F 17% 29.77 in 10.0 mi NW 18.4 mph 27.6 mph N/A   Clear
8:58 PM 53.4 °F - 21.7 °F 29% 29.76 in 10.0 mi NW 16.1 mph - N/A   Clear
9:58 PM 52.3 °F - 20.3 °F 28% 29.79 in 10.0 mi NW 23.0 mph - N/A   Clear
10:58 PM 47.7 °F - 24.1 °F 40% 29.80 in 10.0 mi NW 25.3 mph - N/A   Clear
11:58 PM 45.7 °F 37.4 °F 25.0 °F 44% 29.81 in 10.0 mi WNW 23.0 mph - N/A   Clear